Wind_Speed
42 43 44 44 46 48 51 53 55 56 56 56 58 59 61 62 63 64 65 66 67 68 70 72 74 76 78 81 84 87 90 92 94 97 98 100 101 102
44 44 45 46 49 51 54 57 59 60 60 61 62 63 63 64 65 65 66 67 69 71 74 76 79 82 86 89 92 95 97 98 98 98 97 96 94 93
44 45 46 49 52 55 58 60 62 63 64 64 66 66 67 67 66 67 68 70 73 77 80 84 87 91 95 97 98 98 96 92 89 85 80 76 74 72
45 47 49 52 56 59 61 62 64 65 66 66 67 68 68 69 69 71 73 76 80 84 88 92 96 97 97 96 92 87 81 75 70 66 62 60 58 57
47 50 54 57 59 60 62 64 66 67 68 68 68 68 69 72 73 75 78 82 88 92 95 97 95 93 88 83 76 70 65 61 59 57 55 54 53 51
51 54 57 58 60 62 64 66 67 67 68 69 69 70 72 75 78 80 83 88 91 94 93 90 85 80 74 69 64 60 58 56 55 53 52 51 50 48
54 56 58 60 62 64 66 67 67 68 69 71 71 73 76 79 82 85 87 88 87 85 81 76 72 68 64 62 60 58 57 56 53 51 50 49 48 47
55 57 59 61 63 65 67 67 69 70 72 73 75 78 81 84 85 86 86 83 77 72 69 63 62 60 59 58 58 58 57 55 52 50 48 47 46 46
56 58 60 63 64 66 67 68 70 73 76 78 79 82 84 85 85 82 78 73 67 63 61 56 56 56 56 56 57 57 56 54 52 49 46 45 44 44
57 59 61 63 65 66 68 70 73 76 79 82 84 85 85 83 79 74 68 62 57 56 59 56 54 54 52 52 55 56 55 52 49 46 44 43 42 42
58 60 62 64 66 69 71 74 76 79 82 85 85 83 79 74 69 63 58 55 53 53 58 57 54 52 48 47 51 52 51 49 45 42 40 40 40 40
59 61 64 66 70 73 75 77 79 81 82 81 78 73 67 61 57 55 54 54 54 53 54 53 50 48 42 39 42 46 46 44 40 37 36 35 36 36
60 63 67 70 73 75 78 80 80 79 76 70 64 58 53 51 51 52 53 54 54 53 51 48 43 40 38 32 32 37 39 38 35 32 30 30 30 31
63 67 71 73 76 78 80 80 77 71 64 56 49 45 44 45 47 50 52 52 51 49 46 42 37 33 30 27 26 29 32 32 29 27 25 23 23 25
68 72 74 76 79 80 78 73 65 56 47 41 38 38 39 42 45 47 47 46 44 44 42 38 34 30 27 24 22 23 24 25 24 20 18 18 19 21
72 75 77 78 77 73 66 57 46 39 34 32 31 33 37 41 43 42 41 39 36 36 37 35 32 28 24 21 18 17 18 18 19 18 16 16 18 19
74 75 75 72 66 56 46 37 31 28 26 27 30 34 37 39 39 38 36 34 32 29 28 29 29 28 24 19 14 14 14 16 17 18 18 18 21 22
72 69 65 57 47 37 29 25 23 22 24 27 31 34 35 34 34 33 33 31 30 28 25 23 22 22 23 23 19 13 13 15 17 19 19 20 22 25
62 56 47 37 29 22 20 19 19 21 24 28 31 32 32 31 31 30 30 29 28 27 26 23 21 20 18 18 21 20 16 16 17 20 22 22 22 25
47 39 30 23 18 16 16 18 20 22 25 29 31 31 30 30 29 29 28 27 26 25 25 24 23 21 19 18 18 21 22 20 19 20 22 23 24 26
32 26 20 16 15 16 17 19 22 24 26 29 30 30 29 29 28 28 27 27 27 25 25 25 24 23 21 20 20 21 23 24 23 22 21 21 22 24
25 21 17 16 16 17 19 21 23 25 27 29 30 30 29 29 28 27 27 27 27 26 25 25 24 24 23 23 22 22 22 23 25 25 23 21 21 20
22 19 17 17 18 19 21 23 24 26 27 29 29 29 29 28 28 27 27 27 26 26 25 25 24 25 25 25 24 23 23 23 23 24 24 23 21 19
Wind_Direction
284 286 287 289 291 292 293 295 296 297 296 296 296 296 296 295 295 294 293 292 291 290 289 288 287 287 286 286 286 285 284 283 282 280 279 277 275 273
285 287 288 289 291 292 294 296 297 297 297 297 297 297 297 296 295 294 293 292 291 291 290 290 290 290 290 289 289 288 287 285 283 282 279 277 275 273
286 287 289 290 291 293 294 295 297 297 298 298 298 298 297 296 295 295 294 294 294 294 293 293 293 293 293 292 291 290 288 286 284 281 279 277 275 273
286 288 290 291 292 293 294 295 296 297 298 298 298 298 297 296 296 295 296 296 296 296 297 297 297 296 295 294 292 290 288 285 282 279 277 275 273 271
287 289 291 291 292 293 295 296 297 297 298 298 298 297 297 296 297 297 298 299 299 300 300 299 299 297 296 293 291 289 286 283 280 277 275 273 271 269
288 289 290 291 293 294 295 296 297 298 298 298 298 298 297 298 298 299 300 301 302 301 301 300 299 297 294 292 290 288 285 283 281 277 274 271 269 267
288 289 291 292 294 295 296 297 298 297 297 298 298 298 299 299 300 301 302 303 303 301 300 299 297 296 294 293 291 288 286 284 281 278 274 269 266 263
289 291 292 293 295 296 298 298 298 298 298 299 299 300 300 301 302 303 303 303 302 299 298 297 296 295 294 293 290 288 286 284 282 278 274 269 264 260
291 293 294 295 297 298 298 299 299 299 300 300 301 301 302 302 303 304 304 304 303 299 297 296 295 295 293 291 289 287 285 282 280 277 274 269 264 259
293 295 296 297 298 298 299 299 300 300 301 301 303 304 304 304 304 304 304 303 302 300 298 298 296 295 293 290 288 286 284 282 280 277 273 268 263 259
296 297 298 299 299 299 300 301 301 302 302 303 304 304 304 304 305 305 305 304 303 302 300 301 300 297 295 291 288 286 285 283 280 277 273 267 262 258
299 300 300 301 301 301 301 302 302 302 303 304 305 305 305 306 306 307 307 307 306 305 303 303 303 300 296 290 285 284 285 284 282 278 272 266 260 256
301 302 302 302 302 302 303 303 303 304 304 304 304 305 306 308 309 310 311 311 311 311 309 308 308 304 301 294 284 283 284 285 285 282 273 265 259 255
303 303 303 303 303 303 304 304 304 305 305 305 306 306 308 310 312 314 314 315 315 314 314 315 315 312 306 299 289 284 286 289 288 283 277 269 260 255
305 304 304 304 304 304 305 305 306 306 307 307 309 310 312 314 316 317 318 318 318 318 319 320 321 319 315 309 297 289 287 289 291 287 280 273 266 261
306 305 305 305 305 305 306 306 307 308 309 311 314 316 318 319 320 321 322 323 322 320 320 323 325 326 324 317 309 298 294 290 290 293 290 283 276 271
307 307 307 307 308 308 308 308 310 313 315 318 321 322 322 323 324 326 328 329 329 328 325 324 326 329 330 327 316 307 301 296 294 293 292 289 285 281
309 309 310 311 311 312 313 316 319 320 323 326 327 327 328 329 330 331 333 334 334 334 332 330 328 326 326 328 329 322 309 302 296 294 292 289 285 284
313 314 316 317 318 320 324 327 328 327 328 330 332 332 333 333 335 335 336 337 337 336 336 335 333 330 326 321 319 325 321 311 302 297 296 293 287 283
319 322 325 328 331 333 334 334 333 332 332 334 335 336 337 338 338 339 340 341 341 340 339 338 338 336 332 327 321 318 319 317 310 304 299 296 292 287
329 333 336 339 339 338 336 335 334 335 336 337 338 339 340 341 341 342 343 344 344 344 343 341 339 337 335 332 328 323 320 318 317 312 307 302 297 293
337 339 339 338 337 336 336 336 336 336 337 338 340 340 341 343 344 345 345 345 345 344 344 343 341 340 338 336 333 330 325 321 320 319 316 311 305 298
338 337 337 335 334 334 336 336 337 337 338 339 340 341 342 343 344 345 345 344 344 345 345 346 345 344 343 341 339 336 332 328 325 323 321 319 317 312
Height
5698 5695 5692 5688 5684 5680 5675 5671 5667 5662 5659 5653 5645 5639 5632 5627 5621 5616 5611 5605 5599 5593 5587 5581 5576 5571 5565 5560 5554 5548 5542 5536 5530 5525 5520 5515 5511 5508
5687 5684 5681 5677 5672 5667 5662 5657 5652 5647 5642 5637 5630 5623 5617 5610 5604 5598 5592 5586 5579 5572 5565 5559 5553 5546 5539 5532 5525 5517 5510 5503 5496 5490 5483 5478 5474 5471
5677 5673 5669 5665 5660 5654 5649 5643 5637 5631 5626 5621 5613 5605 5598 5592 5585 5579 5572 5565 5558 5549 5541 5534 5526 5518 5509 5500 5491 5483 5475 5468 5461 5455 5450 5446 5443 5441
5665 5662 5657 5652 5647 5641 5635 5629 5623 5616 5610 5605 5597 5589 5581 5573 5567 5560 5552 5544 5534 5525 5515 5506 5496 5486 5476 5466 5457 5450 5443 5438 5433 5429 5426 5423 5421 5419
5654 5649 5644 5639 5633 5627 5621 5614 5607 5600 5593 5586 5580 5572 5563 5554 5547 5540 5531 5520 5509 5496 5486 5476 5465 5454 5444 5435 5428 5423 5418 5415 5412 5409 5406 5404 5403 5402
5642 5637 5631 5625 5619 5613 5606 5599 5591 5583 5575 5568 5562 5554 5545 5535 5526 5519 5511 5497 5484 5468 5457 5447 5436 5427 5418 5411 5407 5402 5398 5395 5392 5390 5388 5387 5386 5386
5629 5623 5617 5611 5604 5598 5590 5583 5575 5567 5559 5551 5544 5535 5525 5515 5506 5495 5486 5476 5461 5443 5434 5424 5413 5406 5397 5390 5385 5381 5378 5376 5374 5372 5370 5370 5369 5370
5616 5610 5603 5596 5589 5582 5574 5566 5557 5548 5540 5533 5524 5514 5504 5493 5483 5472 5461 5452 5443 5426 5414 5408 5395 5389 5381 5374 5366 5361 5358 5356 5355 5354 5353 5352 5353 5354
5602 5596 5589 5581 5573 5566 5558 5549 5539 5528 5520 5511 5502 5491 5482 5471 5461 5451 5438 5428 5419 5405 5396 5394 5382 5375 5367 5357 5349 5343 5340 5338 5337 5336 5336 5336 5336 5338
5589 5582 5574 5566 5557 5549 5542 5533 5522 5510 5500 5489 5479 5468 5457 5446 5437 5428 5419 5411 5402 5388 5376 5375 5368 5360 5353 5342 5332 5325 5322 5320 5320 5319 5319 5320 5320 5322
5574 5567 5559 5550 5542 5533 5525 5515 5505 5492 5479 5467 5456 5445 5435 5425 5416 5409 5401 5393 5387 5377 5360 5355 5349 5342 5338 5329 5317 5309 5305 5304 5304 5304 5304 5304 5305 5307
5560 5551 5543 5534 5525 5514 5505 5495 5485 5473 5461 5448 5435 5424 5416 5407 5398 5391 5384 5376 5368 5361 5348 5339 5332 5323 5322 5317 5306 5297 5292 5289 5289 5290 5290 5291 5292 5294
5545 5536 5527 5517 5507 5496 5485 5474 5463 5453 5442 5431 5420 5411 5402 5394 5385 5377 5368 5359 5350 5342 5332 5324 5318 5310 5303 5302 5297 5288 5282 5279 5278 5278 5278 5279 5281 5283
5531 5521 5510 5499 5488 5476 5464 5453 5442 5432 5423 5415 5407 5400 5392 5384 5375 5366 5356 5346 5336 5327 5319 5311 5306 5299 5293 5289 5286 5281 5275 5272 5270 5270 5269 5271 5272 5274
5514 5503 5492 5481 5469 5456 5444 5434 5424 5416 5409 5403 5397 5390 5383 5375 5366 5357 5347 5337 5327 5317 5308 5302 5296 5291 5286 5281 5278 5274 5270 5267 5264 5264 5264 5264 5265 5266
5496 5484 5472 5460 5448 5437 5426 5418 5411 5405 5400 5395 5389 5383 5375 5366 5357 5348 5339 5331 5323 5314 5303 5296 5290 5285 5280 5276 5272 5269 5266 5263 5262 5260 5259 5259 5259 5259
5478 5465 5452 5440 5429 5419 5412 5406 5402 5397 5393 5388 5383 5376 5368 5359 5350 5341 5333 5324 5316 5309 5302 5294 5287 5281 5276 5272 5269 5266 5263 5261 5258 5256 5255 5254 5253 5251
5459 5446 5434 5423 5415 5408 5403 5400 5396 5392 5388 5383 5377 5369 5361 5353 5345 5336 5328 5320 5312 5305 5298 5293 5287 5281 5276 5270 5266 5263 5261 5258 5255 5252 5250 5248 5247 5243
5440 5429 5420 5412 5407 5403 5399 5396 5393 5389 5384 5378 5372 5364 5356 5348 5340 5332 5324 5317 5309 5302 5296 5290 5284 5279 5275 5270 5265 5260 5257 5254 5250 5247 5244 5241 5239 5236
5428 5419 5412 5408 5404 5401 5398 5394 5390 5386 5380 5374 5367 5359 5352 5344 5337 5329 5322 5314 5307 5300 5294 5287 5282 5276 5271 5267 5263 5258 5252 5248 5244 5241 5237 5233 5230 5226
5421 5415 5410 5406 5403 5400 5396 5392 5388 5382 5377 5370 5363 5356 5348 5341 5334 5327 5319 5312 5305 5298 5292 5286 5280 5274 5268 5264 5259 5254 5248 5242 5237 5233 5229 5225 5221 5217
5419 5414 5409 5406 5402 5398 5394 5390 5385 5379 5373 5366 5359 5353 5345 5338 5331 5324 5317 5311 5304 5297 5291 5284 5278 5272 5266 5260 5255 5250 5244 5238 5231 5225 5220 5216 5212 5208
5417 5413 5408 5405 5401 5396 5392 5387 5382 5376 5370 5363 5356 5350 5343 5336 5329 5322 5316 5309 5303 5296 5289 5283 5276 5270 5263 5257 5251 5245 5239 5233 5227 5221 5215 5209 5204 5200